Weather History for KLWV - December, 2013

Change the Weather History Date:

Saturday, December 21, 2013

  Actual Average Record
Temperature  
Mean Temperature 43 °F 33 °F  
Max Temperature 48 °F 41 °F 59 °F (2011)
Min Temperature 38 °F 25 °F 1 °F (2000)
Degree Days  
Heating Degree Days 22 32  
Month to date heating degree days 693 611  
Since 1 July heating degree days 1717 1469  
Cooling Degree Days 0 0  
Month to date cooling degree days 0 0  
Year to date cooling degree days 1287 1387  
Moisture  
Dew Point 40 °F    
Average Humidity 96    
Maximum Humidity 100    
Minimum Humidity 92    
Precipitation  
Precipitation 3.23 in 0.12 in 3.23 in (2013)
Month to date precipitation 4.48 2.21  
Year to date precipitation 55.06 42.70  
Sea Level Pressure  
Sea Level Pressure 29.69 in    
Wind  
Wind Speed 9 mph (North)    
Max Wind Speed 22 mph    
Max Gust Speed 25 mph    
Visibility 4 miles    
Events Rain , Thunderstorm    
T = Trace of Precipitation, MM = Missing Value Source: NWS Daily Summary

Daily Weather History Graph

Daily Weather History Graph

Search for Another Location

Airport or City:

Trip Planner

Search our weather history database for the weather conditions in past years. The results will help you decide how hot, cold, wet, or windy it might be!

Date:

Astronomy

Dec. 21, 2013 Rise Set
Actual Time 7:05 AM CST 4:32 PM CST
Civil Twilight 6:35 AM CST 5:02 PM CST
Nautical Twilight 6:01 AM CST 5:35 PM CST
Astronomical Twilight 5:29 AM CST 6:08 PM CST
Moon 8:46 PM CST (12/21) 9:33 AM CST (12/21)
Length of Visible Light 10h 27m
Length of Day
9h 27m
Waning Gibbous, 84% of the Moon is Illuminated
Dec 21
Waning Gibbous
Dec 25
Last Quarter
Jan 1
New
Jan 7
First Quarter
Jan 15
Full

Hourly Weather History & Observations

Time (CST) Temp. Windchill Dew Point Humidity Pressure Visibility Wind Dir Wind Speed Gust Speed Precip Events Conditions
12:00 AM 48.0 °F - 46.9 °F 96% 29.85 in 3.0 mi WNW 11.5 mph - 0.01 in Rain Light Rain
12:13 AM 46.9 °F - 46.0 °F 97% 29.84 in 3.0 mi NW 11.5 mph - 0.02 in Rain Light Rain
12:33 AM 46.0 °F 41.0 °F 45.0 °F 96% 29.84 in 4.0 mi WNW 10.4 mph - 0.03 in Rain Light Rain
12:53 AM 45.0 °F 41.2 °F 45.0 °F 100% 29.83 in 4.0 mi NNW 6.9 mph - 0.04 in Rain Light Rain
12:59 AM 45.0 °F 41.8 °F 44.1 °F 97% 29.82 in 4.0 mi North 5.8 mph - 0.01 in Rain Light Rain
1:15 AM 45.0 °F 41.2 °F 43.0 °F 93% 29.81 in 6.0 mi NNW 6.9 mph - 0.01 in Rain Light Rain
1:29 AM 45.0 °F 40.6 °F 43.0 °F 93% 29.80 in 7.0 mi NNW 8.1 mph - 0.01 in Rain Light Rain
1:53 AM 43.0 °F 37.2 °F 41.0 °F 93% 29.82 in 10.0 mi NNW 10.4 mph - 0.01 in   Overcast
2:07 AM 42.1 °F 35.7 °F 39.9 °F 92% 29.82 in 7.0 mi NW 11.5 mph - 0.01 in Rain Light Rain
2:44 AM 42.1 °F 38.4 °F 41.0 °F 96% 29.80 in 5.0 mi NW 5.8 mph - 0.02 in Rain Light Rain
2:53 AM 42.1 °F 37.7 °F 41.0 °F 96% 29.79 in 5.0 mi North 6.9 mph - 0.02 in Rain Light Rain
3:05 AM 42.1 °F 38.4 °F 41.0 °F 96% 29.79 in 4.0 mi North 5.8 mph - 0.01 in Rain Light Rain
3:23 AM 42.1 °F 37.7 °F 41.0 °F 96% 29.79 in 1.8 mi North 6.9 mph - 0.05 in Rain Rain
3:34 AM 42.1 °F 36.6 °F 41.0 °F 96% 29.79 in 1.5 mi NNW 9.2 mph - 0.10 in Rain Heavy Rain
3:53 AM 41.0 °F 34.7 °F 39.9 °F 96% 29.77 in 2.5 mi North 10.4 mph - 0.16 in Rain Rain
3:58 AM 41.0 °F 34.7 °F 39.9 °F 96% 29.77 in 3.0 mi North 10.4 mph - 0.01 in Rain Rain
4:11 AM 41.0 °F 36.4 °F 39.9 °F 96% 29.77 in 3.0 mi NNE 6.9 mph - 0.04 in Rain Rain
4:15 AM 41.0 °F 37.1 °F 39.9 °F 96% 29.76 in 2.5 mi NNE 5.8 mph - 0.05 in Rain Heavy Rain
4:26 AM 41.0 °F 37.1 °F 39.9 °F 96% 29.78 in 3.0 mi NNW 5.8 mph - 0.07 in Rain Rain
4:39 AM 41.0 °F 35.2 °F 39.9 °F 96% 29.77 in 3.0 mi North 9.2 mph - 0.11 in Rain Rain
4:53 AM 41.0 °F 35.2 °F 39.9 °F 96% 29.78 in 4.0 mi NNW 9.2 mph - 0.14 in Rain Rain
5:07 AM 41.0 °F 36.4 °F 39.9 °F 96% 29.78 in 2.5 mi NNW 6.9 mph - 0.05 in Rain Rain
5:19 AM 41.0 °F 35.2 °F 39.9 °F 96% 29.77 in 4.0 mi North 9.2 mph - 0.07 in Rain Light Rain
5:29 AM 41.0 °F 35.2 °F 39.9 °F 96% 29.76 in 8.0 mi North 9.2 mph - 0.07 in Rain Light Rain
5:53 AM 41.0 °F 35.8 °F 39.0 °F 93% 29.76 in 4.0 mi North 8.1 mph - 0.11 in Rain Rain
6:24 AM 39.9 °F 32.5 °F 39.0 °F 97% 29.78 in 2.5 mi NNW 12.7 mph - 0.11 in Rain Heavy Rain
6:41 AM 39.9 °F 35.1 °F 39.0 °F 97% 29.77 in 1.8 mi NNE 6.9 mph - 0.23 in Rain Heavy Rain
6:49 AM 39.2 °F 32.5 °F 39.2 °F 100% 29.76 in 1.2 mi North 10.4 mph - 0.34 in Rain Heavy Rain
6:53 AM 39.9 °F 33.9 °F 39.0 °F 97% 29.77 in 1.2 mi NNE 9.2 mph - 0.37 in Rain Heavy Rain
7:06 AM 39.0 °F 31.8 °F 37.9 °F 96% 29.79 in 2.0 mi NNW 11.5 mph - 0.09 in Rain Heavy Rain
7:14 AM 39.0 °F 31.4 °F 37.9 °F 96% 29.81 in 2.0 mi NNW 12.7 mph - 0.15 in Rain Heavy Rain
7:29 AM 39.0 °F 31.4 °F 37.9 °F 96% 29.77 in 2.0 mi North 12.7 mph - 0.24 in Rain Heavy Rain
7:36 AM 39.0 °F 30.6 °F 37.9 °F 96% 29.75 in 3.0 mi NNE 15.0 mph - 0.26 in Rain Rain
7:53 AM 39.0 °F 30.6 °F 37.0 °F 93% 29.78 in 2.5 mi North 15.0 mph - 0.33 in Rain Heavy Rain
8:06 AM 37.9 °F 32.1 °F 37.0 °F 97% 29.78 in 1.5 mi NE 8.1 mph - 0.08 in Rain Rain
8:21 AM 37.9 °F 30.9 °F 37.0 °F 97% 29.76 in 2.5 mi NNE 10.4 mph - 0.12 in Rain Rain
8:28 AM 37.9 °F 32.1 °F 37.0 °F 97% 29.76 in 3.0 mi NNE 8.1 mph - 0.13 in Rain Light Rain
8:46 AM 39.0 °F 35.7 °F 37.0 °F 93% 29.79 in 2.5 mi North 4.6 mph - 0.16 in Rain Rain
8:53 AM 39.0 °F 34.0 °F 37.0 °F 93% 29.77 in 2.5 mi ENE 6.9 mph - 0.17 in Rain Rain
9:04 AM 37.9 °F 31.5 °F 37.0 °F 97% 29.76 in 2.5 mi ENE 9.2 mph - 0.03 in Rain Rain
9:24 AM 39.0 °F 32.8 °F 37.9 °F 96% 29.75 in 4.0 mi ENE 9.2 mph - 0.07 in Rain Light Rain
9:53 AM 39.0 °F 35.7 °F 37.9 °F 96% 29.75 in 3.0 mi ENE 4.6 mph - 0.11 in Rain Light Rain
10:11 AM 39.9 °F - 37.9 °F 93% 29.75 in 2.0 mi North - - 0.03 in Rain Rain
10:38 AM 39.9 °F 35.8 °F 39.0 °F 97% 29.73 in 4.0 mi Variable 5.8 mph - 0.07 in Rain Light Rain
10:53 AM 39.9 °F 33.4 °F 39.0 °F 97% 29.76 in 6.0 mi NW 10.4 mph - 0.07 in Rain Light Rain
11:06 AM 39.9 °F 32.9 °F 39.0 °F 97% 29.75 in 1.8 mi NW 11.5 mph - 0.04 in Rain Rain
11:21 AM 39.9 °F 32.1 °F 39.0 °F 97% 29.74 in 3.0 mi NW 13.8 mph - 0.07 in Rain Light Rain
11:53 AM 39.0 °F 31.4 °F 37.9 °F 96% 29.75 in 2.5 mi NW 12.7 mph - 0.11 in Rain Rain
12:11 PM 39.0 °F 31.8 °F 37.0 °F 93% 29.75 in 3.0 mi NW 11.5 mph - 0.02 in Rain Light Rain
12:31 PM 39.9 °F 34.5 °F 37.9 °F 93% 29.72 in 4.0 mi NNE 8.1 mph - 0.04 in Rain Light Rain
12:53 PM 39.9 °F 35.8 °F 37.9 °F 93% 29.71 in 6.0 mi North 5.8 mph - 0.05 in Rain Light Rain
1:39 PM 39.9 °F 33.9 °F 39.0 °F 97% 29.68 in 6.0 mi NE 9.2 mph - 0.03 in Rain Light Rain
1:53 PM 39.9 °F 33.9 °F 39.0 °F 97% 29.68 in 6.0 mi ENE 9.2 mph - 0.03 in Rain Light Rain
2:27 PM 41.0 °F 33.9 °F 39.0 °F 93% 29.62 in 7.0 mi ENE 12.7 mph - 0.02 in Rain Light Rain
2:33 PM 41.0 °F 34.7 °F 39.0 °F 93% 29.62 in 6.0 mi ENE 10.4 mph - 0.02 in Rain Light Rain
2:48 PM 41.0 °F 36.4 °F 39.2 °F 93% 29.63 in 6.0 mi ENE 6.9 mph - 0.03 in Rain Light Rain
2:53 PM 41.0 °F 36.4 °F 39.9 °F 96% 29.63 in 5.0 mi ENE 6.9 mph - 0.03 in Rain Light Rain
3:01 PM 41.0 °F 35.8 °F 39.9 °F 96% 29.62 in 4.0 mi ENE 8.1 mph - 0.01 in Rain Light Rain
3:53 PM 42.1 °F 38.4 °F 41.0 °F 96% 29.62 in 2.5 mi NE 5.8 mph - 0.06 in Rain Rain
4:10 PM 42.1 °F 37.1 °F 42.1 °F 100% 29.59 in 4.0 mi NNE 8.1 mph - 0.03 in Rain Rain
4:46 PM 42.1 °F 37.1 °F 42.1 °F 100% 29.57 in 2.0 mi NE 8.1 mph - 0.17 in Rain Heavy Rain
4:53 PM 42.1 °F 37.1 °F 42.1 °F 100% 29.57 in 2.0 mi NE 8.1 mph - 0.21 in Rain Heavy Rain
5:13 PM 43.0 °F 37.2 °F 42.1 °F 97% 29.55 in 1.8 mi NNE 10.4 mph - 0.13 in Rain Heavy Rain
5:36 PM 43.0 °F 37.2 °F 42.1 °F 97% 29.53 in 1.2 mi NNE 10.4 mph - 0.43 in Rain Heavy Rain
5:53 PM 43.0 °F 38.8 °F 43.0 °F 100% 29.54 in 1.2 mi North 6.9 mph - 0.65 in Rain Heavy Rain
6:03 PM 43.0 °F 40.3 °F 43.0 °F 100% 29.54 in 2.5 mi NNW 4.6 mph - 0.05 in Rain Rain
6:07 PM 43.0 °F 40.3 °F 43.0 °F 100% 29.54 in 3.0 mi NNW 4.6 mph - 0.06 in Rain Rain
6:37 PM 43.0 °F 36.0 °F 42.1 °F 97% 29.53 in 6.0 mi NW 13.8 mph - 0.10 in Rain Light Rain
6:53 PM 42.1 °F 34.5 °F 41.0 °F 96% 29.57 in 5.0 mi WNW 15.0 mph - 0.12 in Rain Rain
7:53 PM 41.0 °F 34.3 °F 39.0 °F 93% 29.51 in 5.0 mi NNW 11.5 mph - 0.16 in Rain Rain
8:53 PM 39.9 °F 32.9 °F 39.0 °F 97% 29.57 in 5.0 mi NW 11.5 mph - 0.16 in Rain Rain
9:16 PM 39.9 °F 35.1 °F 37.9 °F 93% 29.53 in 4.0 mi East 6.9 mph - 0.06 in Rain , Thunderstorm Thunderstorms and Rain
9:23 PM 39.9 °F 32.5 °F 37.9 °F 93% 29.50 in 4.0 mi East 12.7 mph - 0.08 in Rain , Thunderstorm Thunderstorms and Rain
9:29 PM 39.9 °F 31.8 °F 37.9 °F 93% 29.49 in 5.0 mi East 15.0 mph - 0.09 in Rain Rain
9:53 PM 39.9 °F 35.8 °F 39.0 °F 97% 29.54 in 10.0 mi Variable 5.8 mph - 0.10 in Rain Light Rain
10:01 PM 39.9 °F 32.9 °F 39.0 °F 97% 29.45 in 6.0 mi NNW 11.5 mph 18.4 mph 0.01 in Rain Rain
10:09 PM 39.9 °F 31.8 °F 39.0 °F 97% 29.52 in 9.0 mi WNW 15.0 mph - 0.01 in Rain Light Rain
10:41 PM 39.9 °F 35.1 °F 39.9 °F 100% 29.48 in 2.5 mi WNW 6.9 mph - 0.02 in Rain Light Rain
10:53 PM 39.9 °F 35.1 °F 39.0 °F 97% 29.53 in 2.5 mi West 6.9 mph - 0.02 in Rain Light Rain
11:04 PM 41.0 °F 35.2 °F 39.9 °F 96% 29.56 in 3.0 mi SSW 9.2 mph - 0.00 in   Overcast
11:10 PM 41.0 °F 37.1 °F 39.9 °F 96% 29.53 in 3.0 mi SW 5.8 mph - 0.00 in   Overcast
11:18 PM 41.0 °F 35.2 °F 39.0 °F 93% 29.56 in 2.0 mi SW 9.2 mph - 0.00 in Rain Light Rain
11:25 PM 41.0 °F 37.1 °F 39.9 °F 96% 29.52 in 2.5 mi WSW 5.8 mph - 0.01 in Rain Light Rain
11:39 PM 41.0 °F 36.4 °F 39.9 °F 96% 29.56 in 2.5 mi WSW 6.9 mph - 0.01 in   Overcast
11:50 PM 39.2 °F 33.6 °F 39.2 °F 100% 29.55 in 4.0 mi WSW 8.1 mph - 0.01 in   Overcast
11:53 PM 39.9 °F 33.4 °F 39.9 °F 100% 29.56 in 4.0 mi WSW 10.4 mph - 0.01 in   Overcast